CZ-6A DEB

Satellite information

Favourite Embed

Satellite Type and Status

DEBRISIN ORBIT

Key statistics

Satellite CZ-6A DEB at a glance.

Uptime

1129

Days in orbit

Revolutions

≈ 14.4

Per day

Orbit

SSO

Sun Synchronous Orbit

Inclination

98.6

Latest

Satellite identification and parameters

Extended collection of information and parameters for CZ-6A DEB.

Object identification

Identified? True

Debris? True

Object name: CZ-6A DEB

International designator: 2022-151DS

Object number (NORAD): 54394

Object ID (CCSDS): 54394

Country: PEOPLES REPUBLIC OF CHINA (PRC)

Current information (Y/N): Y

RCS size: LARGE

Orbital parameters

Period: 99.856 minutes

Inclination: 98.5872 deg

SMA: 7129.788 km

Apoapsis: 824.294 km

Periapsis: 679.012 km

RAAN: 13.149 deg

Eccentricy: 0.01018834

Argument of periapsis: 183.8179 deg

Mean anomaly: 176.2244 deg

Mean motion: 14.42074915 rev/day

Mean motion (dot): 0.00002646 rev/day2

B* drag term: 0.00077036701 1/REarth

Two-line elements (TLE)

Creation date: Dec. 14, 2025, 3:07 a.m.

Reference frame: TEME

Reference center: EARTH

Epoch: Dec. 13, 2025, 4:13 p.m. UTC

TLE line 0: 0 CZ-6A DEB

TLE line 1: 1 54394U 22151DS 25347.67612590 .00002646 00000-0 77037-3 0 9998

TLE line 2: 2 54394 98.5872 13.1490 0101883 183.8179 176.2244 14.42074915161856

Live tracking on map

Real-time ground track for satellite CZ-6A DEB.

In-orbit conjunctions

A list of the most updated potential collisions computed for object CZ-6A DEB.

Target Orbit TCA Probability of collision Miss distance Type
CZ-6A DEB LEO 2025-09-03 23:08:44 0.0002547579 427.0 (m) DEBRIS
IRIDIUM 33 DEB LEO 2025-02-10 13:11:14 0.001282699 39.0 (m) DEBRIS
SPOT 4 SSO 2024-11-07 11:27:37 0.0005535772 517.0 (m) PAYLOAD

Associated space launch

Chinese satellite reported for atmospheric/ocean/environmental/spatial parameter research purposes, details TBD.

CZ-6A DEB was lifted into orbit during the mission ‘Long March 6A | Yunhai 3’, on board a Long March 6A space rocket.

The launch took place on Nov. 11, 2022, 10:52 p.m. from Launch Complex 9A.

For more information about the launch, click the button.

Launch to space Long March 6A | Yunhai 3
Long March 6A | Yunhai 3

Agency: N/A

Status: Launch Successful

Launch date: Nov. 11, 2022, 10:52 p.m. UTC

Rocket: Long March 6A

Launch pad: Launch Complex 9A

Location: Taiyuan Satellite Launch Center, People's Republic of China

...

Latest news about this satellite

There are no fresh news available about this satellite. Check back as we update our databases every day.


Newsletter sign-up

Weekly statistics, charts and insights to help you stay on top of the space industry.